Temperature
6 6 6 6 6 6 6 6 6 5 5 6 6 6 6 6 6 5 5 5 5 5 6 6 6 6 6 6 6 6 5 5 5 5 5 5 5 5
6 6 6 6 6 6 6 6 6 5 5 5 5 6 5 5 5 5 5 5 5 5 5 5 5 5 5 5 5 5 5 5 5 5 5 5 5 4
6 5 5 5 5 5 5 5 5 5 5 5 5 5 5 5 5 5 4 4 4 5 5 5 5 5 5 5 5 5 5 5 4 4 4 4 4 4
5 5 5 5 5 5 5 5 5 5 4 4 4 5 5 5 4 4 4 4 4 4 4 4 4 4 4 4 4 4 4 4 4 4 4 4 4 3
5 5 5 4 4 4 4 4 4 4 4 4 4 4 4 4 4 4 4 3 4 4 4 4 4 4 4 4 4 4 4 4 4 3 3 3 3 3
4 4 4 4 4 4 4 4 4 4 4 4 4 4 4 3 3 3 3 3 3 3 3 3 3 3 4 4 4 4 3 3 3 3 3 3 3 2
4 4 4 4 4 4 4 4 4 4 3 3 3 3 3 3 3 3 3 3 3 2 3 3 3 3 3 3 3 3 3 3 2 2 2 2 2 2
4 4 4 4 4 3 3 3 3 3 3 3 3 3 3 3 2 2 2 2 2 2 2 2 2 2 2 2 2 2 2 2 2 2 1 1 1 1
3 3 3 3 3 3 3 3 3 3 3 3 2 2 2 2 2 2 2 2 2 2 1 2 2 2 2 2 2 1 1 1 1 1 1 1 1 0
3 3 3 3 3 3 2 2 2 2 2 2 2 2 2 2 2 1 1 1 1 1 1 1 1 1 1 1 1 1 1 0 0 0 0 -0 -0 -0
2 2 2 2 3 2 2 2 2 2 2 2 1 1 1 1 1 1 1 1 0 1 0 0 0 0 1 1 0 0 0 -0 -1 -1 -1 -1 -1 -1
2 2 2 2 2 2 1 1 1 1 1 1 1 1 1 1 0 0 0 0 -0 -0 -0 -0 -0 -1 -1 -0 -0 -0 -1 -1 -1 -1 -1 -1 -1 -2
1 1 2 1 1 1 1 1 1 1 1 1 1 0 0 0 -0 -0 -0 -1 -1 -1 -1 -1 -1 -2 -2 -2 -1 -1 -1 -2 -2 -2 -2 -2 -2 -2
1 1 1 1 1 1 0 0 0 0 0 -0 -0 -0 -0 -0 -1 -1 -1 -1 -1 -1 -1 -2 -2 -2 -3 -3 -2 -2 -2 -2 -2 -2 -2 -2 -2 -2
0 0 0 0 0 -0 -0 -0 -0 -0 -1 -1 -1 -1 -1 -1 -1 -1 -1 -2 -2 -2 -2 -2 -2 -3 -3 -3 -3 -3 -3 -3 -3 -3 -3 -3 -3 -3
-1 -1 -1 -1 -1 -1 -1 -1 -1 -1 -1 -1 -1 -1 -2 -2 -2 -2 -2 -2 -2 -2 -2 -3 -3 -3 -3 -4 -4 -4 -4 -4 -4 -4 -4 -4 -4 -4
-1 -1 -1 -1 -2 -2 -2 -1 -2 -2 -2 -2 -2 -2 -2 -2 -2 -2 -3 -3 -3 -3 -3 -3 -4 -4 -4 -4 -4 -4 -4 -4 -4 -4 -4 -4 -4 -4
-2 -2 -2 -2 -2 -2 -2 -2 -2 -2 -2 -2 -2 -3 -3 -3 -3 -3 -3 -3 -4 -4 -4 -4 -4 -4 -4 -4 -4 -4 -5 -5 -5 -5 -5 -5 -4 -4
-2 -2 -2 -2 -2 -2 -2 -3 -3 -3 -3 -3 -3 -3 -3 -4 -4 -4 -4 -4 -4 -5 -5 -5 -5 -6 -6 -6 -5 -5 -5 -5 -5 -5 -5 -5 -5 -5
-3 -3 -3 -3 -3 -3 -3 -3 -3 -3 -3 -4 -4 -4 -4 -4 -4 -5 -5 -5 -5 -5 -5 -5 -6 -6 -6 -6 -6 -5 -5 -6 -6 -6 -6 -5 -5 -5
-3 -3 -3 -3 -3 -4 -4 -4 -4 -4 -4 -4 -4 -4 -4 -5 -5 -5 -5 -5 -6 -6 -6 -6 -6 -6 -6 -6 -6 -6 -6 -6 -6 -6 -6 -6 -6 -6
-4 -4 -4 -4 -4 -4 -4 -4 -4 -4 -5 -5 -5 -5 -5 -5 -5 -5 -6 -6 -6 -6 -6 -6 -6 -6 -6 -7 -6 -6 -6 -6 -6 -6 -6 -6 -7 -6
-4 -4 -4 -4 -5 -5 -5 -5 -5 -5 -5 -5 -5 -5 -5 -6 -6 -6 -6 -6 -6 -6 -7 -7 -7 -7 -7 -7 -7 -7 -7 -6 -6 -6 -6 -6 -6 -6
Wind_Speed
8 8 6 5 5 4 4 4 4 4 5 5 4 5 5 5 5 6 6 6 7 7 7 7 7 8 8 9 10 10 10 11 11 12 12 13 13 14
7 8 7 5 5 5 4 4 4 5 4 3 3 3 5 5 6 6 6 6 7 8 8 9 9 9 9 10 10 11 11 12 12 13 13 14 14 15
8 8 8 7 6 5 5 5 5 4 4 3 2 3 5 5 5 6 6 6 6 8 9 10 10 10 10 11 11 12 12 12 12 13 13 14 15 15
9 9 9 7 7 6 5 6 5 5 4 5 3 4 5 5 5 5 5 6 6 7 9 10 10 11 11 11 12 12 12 12 12 13 13 14 14 15
10 10 9 9 8 7 7 6 5 4 4 4 4 3 3 4 4 4 5 5 6 7 8 9 9 10 11 12 12 12 12 12 12 12 12 13 14 15
10 9 9 9 9 8 7 8 6 5 5 4 4 3 3 3 4 4 4 4 4 5 7 7 9 10 10 10 11 11 11 12 12 12 12 12 13 14
9 9 9 9 9 9 7 8 7 6 5 5 4 4 3 3 5 4 5 4 5 4 5 6 6 7 8 9 9 10 11 11 11 12 12 12 13 14
9 9 8 9 9 9 9 9 9 8 7 6 5 6 6 5 4 4 4 4 5 3 5 6 5 6 6 7 8 9 10 11 11 11 12 13 13 14
9 8 6 7 8 8 8 9 9 9 9 8 8 8 7 6 5 6 6 6 5 3 4 6 5 6 7 7 9 10 11 11 11 12 13 13 14 15
9 9 8 8 8 8 7 7 8 8 8 7 7 7 6 6 6 6 6 5 5 4 4 5 5 6 6 8 9 10 11 11 12 13 13 14 14 14
8 8 9 8 8 9 8 7 7 6 5 7 6 6 5 6 5 3 3 3 4 4 3 4 4 5 6 6 7 9 11 12 12 13 14 14 14 14
6 7 8 8 9 9 8 8 7 6 4 3 3 4 4 6 7 6 5 4 3 3 3 3 3 3 4 4 4 6 8 10 12 13 14 14 14 11
5 5 5 7 8 9 8 7 7 5 4 3 3 3 2 3 4 4 4 4 4 4 3 3 3 3 4 4 5 5 6 7 8 9 11 13 13 11
5 5 4 6 6 6 5 5 5 4 3 3 3 3 3 3 3 3 4 4 4 5 5 4 3 4 4 6 5 5 5 7 7 7 8 10 12 13
4 4 4 5 5 4 5 5 5 4 4 4 4 3 3 2 2 2 2 2 3 4 5 6 5 5 5 6 6 6 6 6 6 6 7 7 8 8
3 4 5 5 4 3 4 4 3 4 4 4 3 2 1 1 2 2 2 2 2 3 3 5 6 5 6 7 7 8 7 5 5 6 7 8 8 9
4 3 3 3 3 3 3 3 3 3 3 3 3 2 2 2 2 2 2 2 3 4 3 3 4 6 7 7 7 7 7 7 6 6 7 8 8 8
4 4 4 4 4 4 4 3 3 3 3 3 3 3 3 3 3 2 3 3 4 4 4 4 4 4 4 5 8 8 6 6 6 6 6 7 8 7
4 4 4 4 4 3 3 3 3 3 2 3 3 3 3 3 3 3 3 3 4 4 4 4 4 4 5 7 4 6 6 6 6 6 6 7 8 8
3 4 3 3 3 3 3 3 3 2 3 3 3 3 3 3 3 4 4 4 4 4 5 4 4 5 5 6 5 5 7 7 6 7 7 7 7 9
3 3 3 3 3 3 3 3 3 3 3 3 3 4 4 4 4 4 4 5 5 5 5 5 5 5 5 4 5 6 5 7 8 6 6 6 7 6
3 3 3 3 3 3 3 3 3 3 4 4 4 4 4 4 4 5 5 4 5 5 6 5 4 4 4 5 7 7 7 6 7 10 10 9 6 5
3 3 3 3 3 3 3 4 4 4 4 4 4 4 4 4 4 4 5 5 5 5 5 5 4 4 5 5 7 7 7 7 6 6 6 8 10 12
Wind_Direction
212 213 214 212 209 217 215 214 219 234 235 221 215 215 213 219 217 229 243 249 261 272 285 279 279 281 279 276 275 276 278 279 280 280 282 285 284 284
209 210 215 213 210 212 212 221 231 238 241 227 225 220 213 221 220 231 242 249 251 260 274 276 271 272 271 272 273 273 275 277 278 279 280 282 282 282
210 211 213 212 210 212 213 217 224 229 239 246 234 220 219 222 224 236 242 246 251 255 265 271 265 264 266 270 271 273 274 276 276 278 280 280 283 282
211 211 213 209 212 212 213 217 222 225 233 241 233 227 232 226 230 238 241 246 254 258 260 267 264 263 264 266 269 272 271 273 273 276 279 281 282 283
212 211 210 207 211 213 215 219 222 225 233 233 234 231 239 229 238 244 247 251 257 260 256 261 265 266 265 263 264 267 268 269 271 273 277 281 283 282
214 213 211 211 213 212 215 218 216 217 223 223 231 236 235 234 236 243 252 254 260 262 254 260 266 267 265 263 262 262 265 269 272 274 277 280 282 283
214 215 215 216 220 216 216 215 211 213 216 220 226 238 232 232 237 239 246 258 266 253 261 265 269 262 260 261 261 262 266 270 272 275 277 280 283 285
213 215 215 214 216 218 220 218 215 213 214 221 229 230 235 240 239 239 242 253 264 245 265 273 269 270 264 264 267 271 271 273 274 276 278 280 283 285
213 212 212 215 212 218 217 217 222 225 223 225 230 234 235 232 231 237 238 250 262 262 261 269 271 273 274 272 268 268 272 275 279 281 282 283 284 284
215 214 213 211 211 213 215 220 225 226 228 230 234 237 239 232 229 238 247 259 278 266 242 256 270 276 279 275 265 262 268 273 278 282 284 286 287 287
219 217 215 214 210 207 210 216 224 231 234 234 241 243 237 227 225 233 229 241 266 266 242 245 266 285 283 272 264 266 271 273 278 282 285 286 288 289
218 219 217 216 211 205 211 213 219 224 217 214 228 233 230 217 214 225 224 234 258 259 228 237 263 282 279 268 271 275 274 275 279 282 285 285 287 286
212 216 214 205 211 210 216 218 216 213 212 215 225 231 232 226 228 231 232 231 239 253 232 228 258 264 263 280 282 275 275 282 285 286 286 286 286 283
213 212 205 193 203 209 215 211 200 198 204 208 217 224 230 235 244 251 246 248 256 261 250 235 246 256 270 281 281 279 282 283 281 282 286 292 287 281
214 201 193 186 193 202 199 197 200 203 203 211 218 230 240 240 244 264 260 266 286 273 249 244 247 257 260 268 276 283 289 287 275 281 288 287 284 284
205 185 181 182 194 202 197 201 212 215 214 220 225 232 229 228 237 248 256 259 271 278 264 252 249 254 265 269 271 276 279 275 278 282 286 285 282 277
189 192 194 194 199 203 208 210 212 210 213 221 221 223 226 235 248 254 260 255 259 274 287 290 284 275 267 265 269 269 274 280 282 286 289 288 284 278
185 200 202 202 205 209 210 212 214 216 217 215 218 220 225 230 241 250 251 252 263 270 276 285 295 296 285 264 238 258 271 282 289 287 285 286 288 288
197 202 206 208 209 208 212 218 225 226 220 215 220 224 226 229 238 247 250 257 268 271 275 277 277 280 284 289 268 228 264 286 289 287 285 284 288 292
204 204 207 210 211 211 215 221 223 221 218 221 224 225 225 229 239 246 249 257 267 274 275 273 267 267 269 280 285 281 262 268 279 284 290 291 290 291
205 208 211 213 217 220 223 224 224 224 224 226 229 230 227 231 240 247 253 257 262 266 270 273 276 280 278 273 278 282 284 267 269 276 287 291 295 295
210 214 217 219 221 227 227 224 225 226 224 227 230 230 230 235 243 248 250 254 259 266 275 282 285 279 269 269 280 289 296 300 293 283 274 266 274 279
221 223 225 223 224 226 226 226 227 230 230 231 230 232 234 240 247 248 250 252 259 266 274 282 284 278 276 277 283 289 293 300 304 304 297 288 279 275
Height
1501 1502 1504 1506 1508 1509 1511 1513 1514 1513 1513 1513 1514 1514 1515 1515 1516 1516 1516 1516 1516 1516 1515 1515 1515 1514 1514 1513 1513 1512 1511 1511 1510 1509 1509 1508 1507 1506
1496 1498 1500 1501 1503 1505 1506 1508 1509 1510 1509 1509 1509 1510 1511 1511 1512 1512 1512 1512 1511 1511 1511 1510 1510 1509 1509 1508 1508 1507 1506 1505 1505 1504 1503 1502 1501 1500
1491 1493 1495 1497 1498 1500 1501 1503 1504 1506 1505 1505 1505 1506 1507 1507 1507 1508 1507 1507 1507 1506 1506 1505 1505 1504 1504 1503 1502 1502 1501 1500 1499 1498 1497 1496 1495 1494
1486 1488 1490 1492 1493 1495 1496 1498 1499 1500 1501 1500 1501 1501 1502 1503 1503 1503 1503 1503 1502 1501 1501 1500 1499 1499 1498 1497 1497 1496 1495 1494 1493 1492 1491 1490 1489 1487
1481 1483 1485 1487 1488 1490 1492 1493 1494 1495 1496 1496 1495 1496 1497 1498 1498 1498 1498 1497 1497 1497 1496 1495 1494 1493 1492 1491 1491 1490 1490 1488 1487 1486 1485 1483 1482 1481
1476 1478 1480 1482 1484 1485 1487 1489 1490 1490 1491 1491 1491 1492 1492 1493 1493 1493 1492 1492 1492 1492 1491 1490 1489 1487 1486 1485 1485 1484 1483 1482 1481 1480 1479 1477 1476 1474
1472 1474 1475 1477 1479 1480 1482 1484 1485 1485 1486 1486 1486 1487 1487 1488 1488 1488 1488 1488 1487 1487 1486 1485 1483 1482 1481 1479 1479 1478 1477 1476 1475 1474 1472 1471 1469 1468
1467 1468 1470 1472 1474 1475 1477 1479 1480 1481 1481 1481 1481 1482 1482 1483 1484 1484 1483 1483 1482 1482 1481 1480 1479 1477 1476 1474 1473 1472 1471 1470 1469 1468 1466 1465 1463 1461
1462 1464 1465 1467 1469 1470 1472 1473 1475 1476 1477 1477 1477 1477 1478 1478 1479 1479 1478 1478 1477 1477 1476 1474 1473 1472 1471 1469 1468 1467 1466 1464 1463 1461 1460 1458 1456 1455
1457 1459 1460 1461 1463 1465 1467 1468 1469 1470 1471 1472 1473 1473 1474 1474 1474 1474 1473 1472 1472 1471 1470 1468 1467 1466 1465 1463 1462 1461 1460 1458 1457 1455 1454 1452 1450 1448
1452 1454 1455 1457 1459 1461 1462 1463 1464 1465 1466 1467 1467 1468 1468 1468 1469 1469 1468 1467 1465 1465 1465 1464 1462 1461 1459 1458 1457 1456 1454 1453 1451 1449 1448 1446 1444 1442
1447 1449 1451 1452 1454 1455 1457 1458 1459 1459 1461 1462 1462 1463 1463 1463 1464 1464 1463 1462 1461 1460 1459 1459 1457 1456 1453 1451 1451 1450 1448 1447 1445 1443 1441 1440 1438 1436
1443 1444 1445 1447 1449 1451 1452 1453 1454 1455 1456 1457 1457 1458 1458 1458 1458 1458 1458 1457 1457 1456 1456 1454 1452 1451 1450 1446 1445 1444 1443 1441 1439 1437 1435 1433 1432 1430
1438 1439 1441 1443 1445 1446 1447 1448 1450 1450 1451 1452 1452 1453 1453 1453 1454 1454 1453 1452 1452 1452 1451 1450 1448 1447 1445 1442 1440 1438 1437 1436 1434 1432 1430 1427 1426 1424
1434 1435 1437 1439 1440 1442 1443 1444 1445 1446 1446 1447 1447 1448 1449 1449 1449 1448 1448 1448 1447 1447 1446 1445 1444 1442 1441 1438 1435 1433 1432 1430 1429 1427 1424 1422 1420 1418
1430 1432 1433 1435 1436 1438 1439 1440 1441 1442 1442 1443 1443 1444 1444 1444 1444 1444 1443 1442 1442 1441 1441 1440 1439 1437 1435 1434 1432 1429 1427 1426 1424 1422 1419 1417 1415 1413
1427 1429 1430 1431 1432 1434 1435 1436 1436 1437 1438 1438 1439 1439 1439 1439 1439 1439 1438 1438 1436 1435 1434 1434 1433 1432 1430 1429 1426 1424 1423 1421 1419 1417 1414 1412 1410 1408
1423 1424 1426 1427 1428 1429 1430 1431 1432 1433 1434 1434 1434 1434 1435 1435 1434 1434 1434 1433 1432 1431 1430 1429 1428 1426 1425 1423 1422 1420 1418 1416 1414 1412 1410 1407 1404 1403
1419 1420 1422 1423 1424 1425 1426 1427 1428 1429 1429 1430 1430 1430 1430 1430 1430 1429 1429 1428 1427 1426 1425 1425 1423 1422 1420 1418 1416 1416 1414 1411 1409 1408 1406 1403 1400 1397
1415 1416 1418 1419 1420 1421 1422 1423 1424 1425 1425 1425 1426 1426 1426 1426 1426 1425 1425 1424 1423 1422 1421 1420 1420 1418 1417 1415 1412 1410 1410 1408 1405 1403 1401 1398 1395 1393
1411 1413 1414 1415 1416 1418 1418 1419 1420 1420 1421 1421 1422 1422 1422 1422 1421 1421 1421 1420 1419 1418 1417 1416 1415 1415 1413 1411 1408 1406 1405 1404 1402 1399 1396 1393 1390 1388
1408 1409 1410 1412 1413 1414 1415 1415 1416 1416 1417 1417 1417 1418 1418 1418 1418 1417 1417 1416 1415 1414 1413 1412 1411 1410 1409 1407 1404 1402 1400 1399 1397 1395 1393 1391 1388 1384
1405 1406 1407 1408 1409 1410 1411 1411 1412 1412 1413 1413 1413 1414 1414 1414 1414 1413 1413 1412 1411 1410 1409 1408 1407 1406 1405 1403 1401 1399 1396 1394 1392 1390 1388 1386 1385 1382